FW9268 Weather Reports


time (UTC)temp
F
wind
direction
speed
knots
gust
knots
rain 1hr
in
rain 24hr
in
rain mn
in
humidity
%
barometer
mb
20260906173044 77 173 3.5 7.8 0.00 0.00 0.00 63 1029.9
20260906173022 77 173 2.6 7.8 0.00 0.00 0.00 64 1020.9
20260906171543 76 178 2.6 10.4 0.00 0.00 0.00 62 1030.4
20260906171521 76 178 3.5 9.6 0.00 0.00 0.00 63 1021.1
20260906170050 76 202 4.3 8.7 0.00 0.00 0.00 63 1030.7
20260906170019 76 202 4.3 8.7 0.00 0.00 0.00 63 1021.4
20260906164547 76 109 3.5 7.8 0.00 0.00 0.00 63 1030.7
20260906164515 76 101 3.5 7.0 0.00 0.00 0.00 64 1021.4
20260906163044 75 166 2.6 6.1 0.00 0.00 0.00 66 1030.7
20260906163012 75 166 2.6 6.1 0.00 0.00 0.00 66 1021.4
20260906161543 75 164 3.5 7.8 0.00 0.00 0.00 67 1030.9
20260906161510 75 159 4.3 7.8 0.00 0.00 0.00 67 1021.5
20260906160050 74 0 2.6 7.8 0.00 0.00 0.00 68 1030.9
20260906160007 74 118 2.6 6.1 0.00 0.00 0.00 66 1021.5
20260906154550 73 165 2.6 7.0 0.00 0.00 0.00 67 1030.7
20260906154502 73 160 1.7 7.0 0.00 0.00 0.00 69 1021.4
20260906153108 72 153 4.3 9.6 0.00 0.00 0.00 68 1030.7
20260906153100 72 178 4.3 7.8 0.00 0.00 0.00 69 1021.4
20260906151601 72 126 1.7 7.0 0.00 0.00 0.00 70 1021.5
20260906151558 71 125 2.6 7.0 0.00 0.00 0.00 71 1030.8
20260906150055 71 159 3.5 7.0 0.00 0.00 0.00 71 1021.4
20260906150046 71 161 3.5 7.8 0.00 0.00 0.00 70 1030.7
20260906144554 70 171 2.6 6.1 0.00 0.00 0.00 73 1030.6
20260906143053 69 153 2.6 6.1 0.00 0.00 0.00 75 1021.2
20260906143051 69 149 2.6 7.0 0.00 0.00 0.00 75 1030.4
20260906141548 69 188 1.7 7.0 0.00 0.00 0.00 79 1030.3
20260906141545 69 188 0.9 7.0 0.00 0.00 0.00 80 1021.1
20260906140047 68 150 1.7 4.3 0.00 0.00 0.00 80 1021.4
20260906140042 68 151 0.9 4.3 0.00 0.00 0.00 80 1030.6
20260906134604 67 0 0.9 6.1 0.00 0.00 0.00 85 1030.5
20260906134537 67 104 0.0 2.6 0.00 0.00 0.00 85 1021.4
20260906133054 65 34 0.9 2.6 0.00 0.00 0.00 91 1030.6
20260906133039 65 34 0.9 2.6 0.00 0.00 0.00 92 1021.5
20260906131547 62 0 0.0 0.0 0.00 0.00 0.00 97 1030.7
20260906131537 62 34 0.0 0.0 0.00 0.00 0.00 98 1021.6
20260906130044 61 0 0.0 0.0 0.00 0.00 0.00 98 1030.4
20260906130028 61 34 0.0 0.0 0.00 0.00 0.00 98 1021.3
20260906124551 59 0 0.0 0.0 0.00 0.00 0.00 98 1030.4
20260906124523 59 34 0.0 0.0 0.00 0.00 0.00 98 1021.3
20260906123056 59 0 0.0 0.0 0.00 0.00 0.00 97 1030.2
20260906123020 59 34 0.0 0.0 0.00 0.00 0.00 98 1021.1
20260906121546 59 0 0.0 0.0 0.00 0.00 0.00 97 1030.1
20260906121519 59 34 0.0 0.0 0.00 0.00 0.00 98 1020.8
20260906120047 59 0 0.0 0.0 0.00 0.00 0.00 98 1030.1
20260906120022 59 34 0.0 0.0 0.00 0.00 0.00 98 1020.7
20260906114553 58 0 0.0 0.0 0.00 0.00 0.00 97 1030.0
20260906114523 58 34 0.0 0.0 0.00 0.00 0.00 98 1020.7
20260906113051 58 0 0.0 0.0 0.00 0.00 0.00 97 1029.8
20260906113014 58 34 0.0 0.0 0.00 0.00 0.00 98 1020.6
20260906111547 58 0 0.0 0.0 0.00 0.00 0.00 97 1029.8
20260906111511 58 34 0.0 0.0 0.00 0.00 0.00 97 1020.4
20260906110050 59 0 0.0 0.0 0.00 0.00 0.00 97 1029.6
20260906110009 59 34 0.0 0.0 0.00 0.00 0.00 98 1020.3
20260906104548 60 0 0.0 0.0 0.00 0.00 0.00 97 1029.4
20260906104506 60 34 0.0 0.0 0.00 0.00 0.00 98 1020.1
20260906103057 61 0 0.0 0.0 0.00 0.00 0.00 97 1029.2
20260906103009 61 34 0.0 0.0 0.00 0.00 0.00 98 1020.0
20260906101554 61 0 0.0 0.0 0.00 0.00 0.00 97 1029.4
20260906101505 61 34 0.0 0.0 0.00 0.00 0.00 97 1020.1
20260906100049 61 0 0.0 0.0 0.00 0.00 0.00 97 1029.2
20260906100002 61 34 0.0 0.0 0.00 0.00 0.00 97 1019.9
20260906094610 62 34 0.0 0.0 0.00 0.00 0.00 98 1020.0
20260906094547 62 0 0.0 0.0 0.00 0.00 0.00 97 1029.1
20260906093117 62 34 0.0 0.0 0.00 0.00 0.00 97 1019.8
20260906093046 62 0 0.0 0.0 0.00 0.00 0.00 97 1029.1
20260906091559 63 34 0.0 0.0 0.00 0.00 0.00 97 1019.8
20260906091552 63 0 0.0 0.0 0.00 0.00 0.00 97 1029.1
20260906090136 63 34 0.0 0.0 0.00 0.00 0.00 98 1019.9
20260906084609 62 34 0.0 0.0 0.00 0.00 0.00 97 1020.1
20260906084548 62 0 0.0 0.0 0.00 0.00 0.00 97 1029.4
20260906083057 62 34 0.0 0.0 0.00 0.00 0.00 97 1020.0
20260906083043 62 0 0.0 0.0 0.00 0.00 0.00 96 1029.3
20260906081559 64 34 0.0 0.0 0.00 0.00 0.00 97 1019.9
20260906081542 64 0 0.0 0.0 0.00 0.00 0.00 97 1029.2
20260906080105 64 34 0.0 0.0 0.00 0.00 0.00 97 1020.0
20260906080043 64 0 0.0 0.0 0.00 0.00 0.00 96 1029.4
20260906074600 64 0 0.0 0.0 0.00 0.00 0.00 97 1029.4
20260906074556 64 34 0.0 0.0 0.00 0.00 0.00 97 1020.0
20260906073057 64 0 0.0 0.0 0.00 0.00 0.00 96 1029.3
20260906073051 64 34 0.0 0.0 0.00 0.00 0.00 97 1019.9
20260906071549 65 34 0.0 0.0 0.00 0.00 0.00 97 1019.8
20260906071544 65 0 0.0 0.0 0.00 0.00 0.00 96 1029.2
20260906070049 64 34 0.0 0.0 0.00 0.00 0.00 96 1019.8
20260906070047 64 0 0.0 0.0 0.00 0.00 0.00 96 1029.3
20260906064548 65 34 0.0 0.0 0.00 0.00 0.00 96 1019.8
20260906064543 65 0 0.0 0.0 0.00 0.00 0.00 95 1029.4
20260906063048 65 34 0.0 0.0 0.00 0.00 0.00 96 1019.9
20260906061550 66 0 0.0 0.0 0.00 0.00 0.00 96 1029.4
20260906060048 66 0 0.0 0.0 0.00 0.00 0.00 95 1029.5
20260906060043 66 34 0.0 0.0 0.00 0.00 0.00 96 1019.9
20260906054545 66 0 0.0 0.0 0.00 0.00 0.00 95 1029.6
20260906053048 66 0 0.0 0.0 0.00 0.00 0.00 95 1029.5
20260906053044 66 34 0.0 0.0 0.00 0.00 0.00 96 1019.9
20260906051556 66 0 0.0 1.7 0.00 0.00 0.00 95 1029.2
20260906051540 66 34 0.0 1.7 0.00 0.00 0.00 96 1019.8
20260906050058 66 34 0.9 2.6 0.00 0.00 0.00 95 1028.9
20260906050038 66 34 0.9 2.6 0.00 0.00 0.00 96 1019.5
20260906044549 66 0 0.0 0.9 0.00 0.00 0.00 95 1029.1
20260906044536 66 33 0.0 0.9 0.00 0.00 0.00 96 1019.8
20260906043056 66 0 0.0 1.7 0.00 0.00 0.00 95 1028.9
20260906043036 66 33 0.0 1.7 0.00 0.00 0.00 96 1019.6
20260906041545 66 32 0.0 0.9 0.00 0.00 0.00 96 1019.3
20260906041542 66 0 0.0 0.9 0.00 0.00 0.00 95 1028.6
20260906040053 66 0 0.0 1.7 0.00 0.00 0.00 95 1028.5
20260906040034 66 32 0.0 1.7 0.00 0.00 0.00 95 1019.2
20260906034607 66 32 0.0 1.7 0.00 0.00 0.00 95 1028.2
20260906034535 66 32 0.0 1.7 0.00 0.00 0.00 96 1018.9
20260906033045 66 0 0.0 1.7 0.00 0.00 0.00 95 1028.1
20260906033030 66 31 0.0 1.7 0.00 0.00 0.00 96 1018.8
20260906031548 65 31 0.0 1.7 0.00 0.00 0.00 95 1028.0
20260906031535 65 31 0.9 1.7 0.00 0.00 0.00 95 1018.5
20260906030051 66 31 0.0 1.7 0.00 0.00 0.00 94 1027.7
20260906030034 66 31 0.0 1.7 0.00 0.00 0.00 95 1018.3
20260906024547 66 0 0.0 2.6 0.00 0.00 0.00 94 1027.4
20260906024528 66 31 0.0 2.6 0.00 0.00 0.00 95 1018.1
20260906023051 66 0 0.0 1.7 0.00 0.00 0.00 93 1027.3
20260906023027 66 30 0.0 1.7 0.00 0.00 0.00 94 1018.0
20260906021550 66 0 0.0 2.6 0.00 0.00 0.00 93 1027.4
20260906021527 66 28 0.0 2.6 0.00 0.00 0.00 94 1017.9
20260906020055 67 0 0.0 0.9 0.00 0.00 0.00 94 1027.2
20260906020026 67 27 0.0 0.9 0.00 0.00 0.00 94 1017.7
20260906014543 67 0 0.0 0.0 0.00 0.00 0.00 93 1027.3
20260906014539 67 27 0.0 0.0 0.00 0.00 0.00 94 1017.7
20260906013058 67 0 0.0 0.0 0.00 0.00 0.00 93 1027.1
20260906013027 67 27 0.0 0.0 0.00 0.00 0.00 93 1017.5
20260906011550 68 0 0.0 0.0 0.00 0.00 0.00 91 1027.0
20260906011525 68 27 0.0 0.0 0.00 0.00 0.00 92 1017.5
20260906010052 69 27 0.0 0.0 0.00 0.00 0.00 90 1017.4
20260906010049 69 0 0.0 0.0 0.00 0.00 0.00 90 1026.9
20260906004543 69 0 0.0 0.0 0.00 0.00 0.00 90 1026.8
20260906004524 69 27 0.0 0.0 0.00 0.00 0.00 90 1017.3
20260906003054 71 0 0.0 0.0 0.00 0.00 0.00 86 1026.6
20260906003024 71 27 0.0 0.0 0.00 0.00 0.00 86 1017.1
20260906001551 72 0 0.0 0.0 0.00 0.00 0.00 84 1026.8
20260906001533 72 27 0.0 0.0 0.00 0.00 0.00 84 1017.2
20260906000053 73 0 0.0 0.0 0.00 0.00 0.00 83 1026.8
20260906000023 73 27 0.0 0.0 0.00 0.00 0.00 83 1017.4
20260905234545 74 0 0.0 0.0 0.00 0.00 0.00 78 1026.7
20260905234522 74 27 0.0 0.0 0.00 0.00 0.00 79 1017.1
20260905233051 77 0 0.0 1.7 0.00 0.00 0.00 71 1026.5
20260905233022 77 27 0.0 1.7 0.00 0.00 0.00 71 1017.1
20260905231555 77 0 0.0 0.9 0.00 0.00 0.00 74 1026.7
20260905231535 77 27 0.0 0.9 0.00 0.00 0.00 74 1017.1
20260905230049 78 27 0.9 2.6 0.00 0.00 0.00 69 1026.9
20260905230021 78 27 0.0 2.6 0.00 0.00 0.00 69 1017.3
20260905224553 78 0 0.0 1.7 0.00 0.00 0.00 69 1026.8
20260905224524 78 20 0.0 1.7 0.00 0.00 0.00 70 1017.3
20260905223052 78 20 0.0 2.6 0.00 0.00 0.00 69 1026.8
20260905223030 78 20 0.0 1.7 0.00 0.00 0.00 69 1017.2
20260905221554 78 0 0.0 2.6 0.00 0.00 0.00 68 1026.9
20260905221519 78 21 0.0 2.6 0.00 0.00 0.00 70 1017.3
20260905220045 78 0 0.0 2.6 0.00 0.00 0.00 68 1026.9
20260905220024 78 294 0.0 2.6 0.00 0.00 0.00 69 1017.4
20260905214553 78 0 0.0 2.6 0.00 0.00 0.00 69 1027.2
20260905214519 78 288 0.0 2.6 0.00 0.00 0.00 70 1017.6
20260905213100 77 286 0.9 3.5 0.00 0.00 0.00 70 1027.3
20260905213020 77 286 0.9 3.5 0.00 0.00 0.00 71 1017.8
20260905211543 76 0 0.0 3.5 0.00 0.00 0.00 72 1027.4
20260905211534 76 289 0.0 1.7 0.00 0.00 0.00 72 1017.9
20260905210058 77 0 0.0 7.0 0.00 0.00 0.00 71 1027.4
20260905210013 77 265 0.0 5.2 0.00 0.00 0.00 72 1018.0
20260905204553 76 213 1.7 5.2 0.00 0.00 0.00 72 1027.6
20260905204520 76 213 0.9 5.2 0.00 0.00 0.00 72 1018.1
20260905203058 76 142 0.0 2.6 0.00 0.00 0.00 74 1027.7
20260905203008 76 142 0.0 2.6 0.00 0.00 0.00 79 1018.1
20260905201544 75 0 0.9 3.5 0.00 0.00 0.00 75 1027.6
20260905201505 75 134 0.9 3.5 0.00 0.00 0.00 76 1018.1
20260905200051 75 121 0.9 5.2 0.00 0.00 0.00 77 1027.5
20260905194559 74 111 0.9 3.5 0.00 0.00 0.00 79 1018.3
20260905194545 74 115 0.9 3.5 0.00 0.00 0.00 78 1027.8
20260905193057 74 117 0.9 2.6 0.00 0.00 0.00 81 1018.4
20260905193042 74 117 0.9 2.6 0.00 0.00 0.00 80 1028.0
20260905191556 74 117 0.9 3.5 0.00 0.00 0.00 81 1018.4
20260905191548 74 117 0.9 3.5 0.00 0.00 0.00 81 1027.9
20260905190059 73 80 0.0 2.6 0.00 0.00 0.00 83 1018.4
20260905190048 73 78 0.0 2.6 0.00 0.00 0.00 82 1027.9
20260905184555 73 322 0.9 5.2 0.00 0.00 0.00 82 1018.4
20260905184549 73 322 0.9 5.2 0.00 0.00 0.00 81 1027.9
20260905183109 73 355 0.0 2.6 0.00 0.00 0.00 83 1018.5
20260905183044 73 0 0.0 2.6 0.00 0.00 0.00 82 1028.0
20260905181553 72 9 0.9 2.6 0.00 0.00 0.00 83 1028.0
20260905181551 72 9 0.9 2.6 0.00 0.00 0.00 83 1018.6
20260905180054 72 64 0.9 4.3 0.00 0.00 0.00 83 1018.5
20260905180049 72 0 0.9 4.3 0.00 0.00 0.00 83 1027.9
20260905174548 71 96 0.9 5.2 0.00 0.00 0.00 86 1018.5
20260905174545 71 96 1.7 5.2 0.00 0.00 0.00 85 1027.9